Photometre #846[NE_1.6_Dp] Glasgow_MO AOT

File : 20200928_846.hum

28/09/2020,07:20:54,TEMP=6.8,BA=5.68,STAT.A,ExtBa=12.40
28/09/2020,07:25:39,TEMP=6.9,BA=5.68,STAT.A,ExtBa=12.30
28/09/2020,07:31:13,TEMP=7.0,BA=5.68,STAT.A,ExtBa=12.30
28/09/2020,07:37:53,TEMP=7.0,BA=5.68,STAT.A,ExtBa=12.30
28/09/2020,07:45:58,TEMP=7.1,BA=5.68,STAT.A,ExtBa=12.30
28/09/2020,07:56:02,TEMP=7.2,BA=5.68,STAT.A,ExtBa=12.30
28/09/2020,08:08:57,TEMP=7.6,BA=5.68,STAT.B,ExtBa=12.30
28/09/2020,08:15:13,TEMP=7.8,BA=5.64,STAT.A,ExtBa=12.30
28/09/2020,08:22:18,TEMP=8.0,BA=5.68,STAT.A,ExtBa=12.30
28/09/2020,08:30:23,TEMP=8.2,BA=5.68,STAT.A,ExtBa=12.30
28/09/2020,08:39:44,TEMP=8.4,BA=5.68,STAT.A,ExtBa=12.30
28/09/2020,08:50:42,TEMP=8.6,BA=5.68,STAT.C,ExtBa=12.30
28/09/2020,09:03:49,TEMP=8.7,BA=5.68,STAT.A,ExtBa=12.30
28/09/2020,09:09:08,TEMP=8.8,BA=5.68,STAT.F,ExtBa=12.30
28/09/2020,09:24:07,TEMP=8.9,BA=5.68,STAT.D,ExtBa=12.30
28/09/2020,09:39:07,TEMP=8.9,BA=5.68,STAT.D,ExtBa=12.30
28/09/2020,09:54:07,TEMP=8.9,BA=5.68,STAT.D,ExtBa=12.30
28/09/2020,10:09:09,TEMP=9.2,BA=5.68,STAT.F,ExtBa=12.30
28/09/2020,10:24:07,TEMP=9.3,BA=5.68,STAT.D,ExtBa=12.30
28/09/2020,10:39:07,TEMP=9.5,BA=5.68,STAT.D,ExtBa=12.30
28/09/2020,10:54:07,TEMP=9.9,BA=5.68,STAT.D,ExtBa=12.30
28/09/2020,11:09:09,TEMP=10.3,BA=5.68,STAT.F,ExtBa=12.30
28/09/2020,11:24:07,TEMP=10.5,BA=5.68,STAT.D,ExtBa=12.30
28/09/2020,11:39:08,TEMP=10.7,BA=5.68,STAT.D,ExtBa=12.30
28/09/2020,11:54:07,TEMP=11.0,BA=5.68,STAT.D,ExtBa=12.30
28/09/2020,12:09:09,TEMP=11.3,BA=5.68,STAT.F,ExtBa=12.30
28/09/2020,12:24:07,TEMP=11.5,BA=5.68,STAT.D,ExtBa=12.30
28/09/2020,12:39:07,TEMP=11.6,BA=5.68,STAT.D,ExtBa=12.30
28/09/2020,12:54:07,TEMP=11.8,BA=5.68,STAT.D,ExtBa=12.30
28/09/2020,13:09:09,TEMP=11.8,BA=5.68,STAT.F,ExtBa=12.30
28/09/2020,13:24:07,TEMP=11.9,BA=5.68,STAT.D,ExtBa=12.30
28/09/2020,13:39:07,TEMP=12.2,BA=5.68,STAT.D,ExtBa=12.30
28/09/2020,13:54:07,TEMP=12.8,BA=5.68,STAT.D,ExtBa=12.30
28/09/2020,14:09:09,TEMP=13.0,BA=5.68,STAT.F,ExtBa=12.30
28/09/2020,14:24:07,TEMP=13.2,BA=5.68,STAT.D,ExtBa=12.30
28/09/2020,14:39:07,TEMP=13.5,BA=5.68,STAT.D,ExtBa=12.30
28/09/2020,14:54:07,TEMP=14.2,BA=5.68,STAT.D,ExtBa=12.30
28/09/2020,15:09:08,TEMP=14.5,BA=5.68,STAT.F,ExtBa=12.30
28/09/2020,15:14:27,TEMP=14.6,BA=5.60,STAT.A,ExtBa=12.30
28/09/2020,15:27:34,TEMP=14.4,BA=5.68,STAT.C,ExtBa=12.30
28/09/2020,15:52:16,TEMP=17.2,BA=5.60,STAT.A,ExtBa=12.10
28/09/2020,15:55:29,TEMP=16.9,BA=5.60,STAT.A,ExtBa=12.20
28/09/2020,15:57:45,TEMP=17.1,BA=5.60,STAT.A,ExtBa=12.10
28/09/2020,16:03:03,TEMP=16.6,BA=5.64,STAT.A,ExtBa=12.20
28/09/2020,16:09:19,TEMP=16.5,BA=5.64,STAT.B,ExtBa=12.20
28/09/2020,16:22:14,TEMP=16.7,BA=5.64,STAT.A,ExtBa=12.10
28/09/2020,16:32:18,TEMP=16.7,BA=5.64,STAT.A,ExtBa=12.20
28/09/2020,16:40:23,TEMP=16.5,BA=5.64,STAT.A,ExtBa=12.20
28/09/2020,16:47:03,TEMP=16.4,BA=5.64,STAT.A,ExtBa=12.20
28/09/2020,16:52:37,TEMP=16.2,BA=5.64,STAT.A,ExtBa=12.20
28/09/2020,16:57:22,TEMP=16.1,BA=5.64,STAT.A,ExtBa=12.20